| time (UTC) | temp F | wind direction | speed MPH | gust MPH | rain 1hr in | rain 24hr in | rain mn in | humidity % | barometer mb |
| 20260502211547 | 60 | 130 | 6.0 | 11.0 | 0.00 | 0.00 | 0.00 | 26 | 1029.0 |
| 20260502210043 | 60 | 128 | 3.0 | 11.0 | 0.00 | 0.00 | 0.00 | 26 | 1029.3 |
| 20260502204540 | 60 | 110 | 5.0 | 10.0 | 0.00 | 0.00 | 0.00 | 27 | 1029.5 |
| 20260502203038 | 60 | 119 | 3.0 | 8.0 | 0.00 | 0.00 | 0.00 | 27 | 1029.8 |
| 20260502201538 | 59 | 117 | 7.0 | 10.0 | 0.00 | 0.00 | 0.00 | 27 | 1029.9 |
| 20260502200036 | 59 | 88 | 3.0 | 13.0 | 0.00 | 0.00 | 0.00 | 29 | 1029.9 |
| 20260502194534 | 59 | 133 | 4.0 | 10.0 | 0.00 | 0.00 | 0.00 | 28 | 1030.0 |
| 20260502193035 | 58 | 107 | 2.0 | 11.0 | 0.00 | 0.00 | 0.00 | 28 | 1030.2 |
| 20260502191532 | 58 | 108 | 4.0 | 13.0 | 0.00 | 0.00 | 0.00 | 27 | 1030.5 |
| 20260502190033 | 57 | 101 | 4.0 | 11.0 | 0.00 | 0.00 | 0.00 | 27 | 1030.9 |
| 20260502184542 | 57 | 66 | 6.0 | 13.0 | 0.00 | 0.00 | 0.00 | 27 | 1031.1 |
| 20260502183029 | 58 | 135 | 3.0 | 13.0 | 0.00 | 0.00 | 0.00 | 28 | 1031.1 |
| 20260502181527 | 57 | 115 | 3.0 | 11.0 | 0.00 | 0.00 | 0.00 | 27 | 1031.3 |
| 20260502163019 | 54 | 254 | 1.0 | 5.0 | 0.00 | 0.01 | 0.00 | 23 | 1032.4 |
| 20260502161515 | 52 | 161 | 1.0 | 4.0 | 0.00 | 0.01 | 0.00 | 28 | 1032.5 |
| 20260502151510 | 51 | 284 | 3.0 | 8.0 | 0.00 | 0.03 | 0.00 | 29 | 1032.9 |
| 20260502123044 | 38 | 116 | 0.0 | 0.0 | 0.00 | 0.03 | 0.00 | 45 | 1033.1 |
| 20260502121553 | 38 | 116 | 0.0 | 3.0 | 0.00 | 0.03 | 0.00 | 44 | 1032.8 |
| 20260502114541 | 41 | 307 | 0.0 | 3.0 | 0.00 | 0.03 | 0.00 | 38 | 1032.8 |
| 20260502113039 | 41 | 268 | 1.0 | 5.0 | 0.00 | 0.03 | 0.00 | 37 | 1032.8 |
| 20260502111538 | 41 | 287 | 2.0 | 7.0 | 0.00 | 0.03 | 0.00 | 38 | 1032.8 |
| 20260502110037 | 41 | 271 | 1.0 | 6.0 | 0.00 | 0.03 | 0.00 | 38 | 1032.9 |
| 20260502104543 | 41 | 225 | 2.0 | 5.0 | 0.00 | 0.03 | 0.00 | 37 | 1033.0 |
| 20260502103048 | 41 | 284 | 2.0 | 7.0 | 0.00 | 0.03 | 0.00 | 37 | 1033.1 |
| 20260502101545 | 41 | 281 | 1.0 | 5.0 | 0.00 | 0.03 | 0.00 | 38 | 1033.1 |
| 20260502071514 | 42 | 285 | 1.0 | 4.0 | 0.00 | 0.03 | 0.00 | 38 | 1033.9 |
| 20260502070019 | 42 | 296 | 2.0 | 4.0 | 0.00 | 0.03 | 0.00 | 36 | 1033.9 |
| 20260502064525 | 42 | 319 | 0.0 | 5.0 | 0.00 | 0.03 | 0.03 | 36 | 1033.9 |
| 20260502063011 | 43 | 297 | 1.0 | 5.0 | 0.00 | 0.03 | 0.03 | 35 | 1033.8 |
| 20260502061509 | 43 | 339 | 2.0 | 6.0 | 0.00 | 0.03 | 0.03 | 34 | 1033.8 |
| 20260502060010 | 43 | 315 | 1.0 | 7.0 | 0.00 | 0.03 | 0.03 | 34 | 1033.7 |
| 20260502054508 | 41 | 307 | 1.0 | 3.0 | 0.00 | 0.03 | 0.03 | 37 | 1033.7 |
| 20260502053008 | 41 | 271 | 1.0 | 3.0 | 0.00 | 0.03 | 0.03 | 39 | 1033.6 |
| 20260502051509 | 41 | 266 | 1.0 | 3.0 | 0.00 | 0.03 | 0.03 | 39 | 1033.6 |
| 20260502050007 | 41 | 282 | 1.0 | 2.0 | 0.00 | 0.03 | 0.03 | 40 | 1033.6 |
| 20260502044507 | 41 | 278 | 1.0 | 3.0 | 0.00 | 0.03 | 0.03 | 40 | 1033.6 |
| 20260502043009 | 41 | 269 | 1.0 | 2.0 | 0.00 | 0.03 | 0.03 | 40 | 1033.7 |
| 20260502041506 | 41 | 278 | 1.0 | 3.0 | 0.00 | 0.03 | 0.03 | 40 | 1033.6 |
| 20260502040011 | 41 | 268 | 1.0 | 1.0 | 0.00 | 0.03 | 0.03 | 41 | 1033.6 |
| 20260502034505 | 42 | 268 | 1.0 | 2.0 | 0.00 | 0.03 | 0.03 | 40 | 1033.5 |
| 20260502033005 | 42 | 271 | 1.0 | 2.0 | 0.00 | 0.03 | 0.03 | 41 | 1033.5 |
| 20260502031504 | 42 | 278 | 0.0 | 3.0 | 0.00 | 0.03 | 0.03 | 40 | 1033.5 |
| 20260502030004 | 42 | 271 | 1.0 | 2.0 | 0.00 | 0.03 | 0.03 | 41 | 1033.3 |
| 20260502024503 | 42 | 270 | 1.0 | 2.0 | 0.00 | 0.04 | 0.03 | 41 | 1033.1 |
| 20260502023007 | 42 | 268 | 0.0 | 2.0 | 0.00 | 0.04 | 0.03 | 42 | 1032.8 |
| 20260502021502 | 43 | 268 | 0.0 | 2.0 | 0.00 | 0.04 | 0.03 | 41 | 1032.8 |
| 20260502020002 | 44 | 275 | 0.0 | 1.0 | 0.00 | 0.04 | 0.03 | 41 | 1032.8 |
| 20260502014502 | 45 | 276 | 0.0 | 2.0 | 0.00 | 0.06 | 0.03 | 41 | 1032.6 |
| 20260502013001 | 46 | 273 | 0.0 | 1.0 | 0.00 | 0.06 | 0.03 | 38 | 1032.4 |
| 20260502011611 | 47 | 88 | 0.0 | 1.0 | 0.00 | 0.06 | 0.03 | 37 | 1032.4 |
| 20260502010059 | 50 | 143 | 0.0 | 1.0 | 0.00 | 0.06 | 0.03 | 35 | 1032.4 |
| 20260502004607 | 54 | 103 | 0.0 | 2.0 | 0.00 | 0.07 | 0.03 | 33 | 1032.4 |
| 20260502003058 | 54 | 126 | 0.0 | 3.0 | 0.00 | 0.07 | 0.03 | 35 | 1032.4 |
| 20260502001555 | 53 | 22 | 0.0 | 2.0 | 0.00 | 0.07 | 0.03 | 35 | 1032.3 |
| 20260502000110 | 50 | 107 | 1.0 | 3.0 | 0.00 | 0.07 | 0.03 | 38 | 1032.4 |
| 20260501234552 | 49 | 77 | 0.0 | 3.0 | 0.00 | 0.07 | 0.03 | 42 | 1032.3 |
| 20260501233052 | 50 | 286 | 0.0 | 3.0 | 0.00 | 0.07 | 0.03 | 39 | 1032.2 |
| 20260501231553 | 51 | 100 | 0.0 | 2.0 | 0.00 | 0.07 | 0.03 | 41 | 1032.2 |
| 20260501230046 | 50 | 343 | 0.0 | 2.0 | 0.00 | 0.07 | 0.03 | 40 | 1032.3 |
| 20260501224554 | 49 | 267 | 0.0 | 3.0 | 0.00 | 0.07 | 0.03 | 42 | 1032.3 |
| 20260501223045 | 49 | 254 | 0.0 | 4.0 | 0.00 | 0.07 | 0.03 | 39 | 1032.3 |
| 20260501221603 | 50 | 281 | 2.0 | 3.0 | 0.00 | 0.07 | 0.03 | 39 | 1032.4 |
| 20260501220047 | 49 | 101 | 1.0 | 2.0 | 0.00 | 0.07 | 0.03 | 41 | 1032.4 |
| 20260501214542 | 49 | 138 | 0.0 | 3.0 | 0.00 | 0.07 | 0.03 | 43 | 1032.5 |
| 20260501213042 | 50 | 115 | 1.0 | 5.0 | 0.00 | 0.07 | 0.03 | 42 | 1032.7 |